Weather History for Omaha Millard, NE

Change the Weather History Date:

Monday, February 3, 2014

  Actual Average (KOMA) Record (KOMA)
Temperature  
Mean Temperature 18 °F 25 °F  
Max Temperature 32 °F 35 °F 65 °F (1934)
Min Temperature 5 °F 15 °F -20 °F (1996)
Degree Days  
Heating Degree Days 46 40  
Month to date heating degree days 120  
Since 1 July heating degree days 3885  
Cooling Degree Days 0 0  
Month to date cooling degree days 0  
Year to date cooling degree days 0  
Moisture  
Dew Point 8 °F    
Average Humidity 63    
Maximum Humidity 82    
Minimum Humidity 40    
Precipitation  
Precipitation 0.00 in 0.03 in 0.46 in (1903)
Month to date precipitation 0.08  
Year to date precipitation 0.80  
Snow  
Snow 0.00 in 0.20 in - ()
Month to date snowfall 0.7  
Since 1 July snowfall 15.8  
Snow Depth -    
Sea Level Pressure  
Sea Level Pressure 30.23 in    
Wind  
Wind Speed 2 mph (SSE)    
Max Wind Speed 10 mph    
Max Gust Speed -    
Visibility 10 miles    
Events      
T = Trace of Precipitation, MM = Missing Value Source: NWS Daily Summary

Daily Weather History Graph

Daily Weather History Graph

Search for Another Location

Airport:

Trip Planner

Search our weather history database for the weather conditions in past years. The results will help you decide how hot, cold, wet, or windy it might be!

Date:

Astronomy

Feb. 03, 2014 Rise Set
Actual Time 7:33 AM CST 5:43 PM CST
Civil Twilight 7:04 AM CST 6:12 PM CST
Nautical Twilight 6:31 AM CST 6:45 PM CST
Astronomical Twilight 5:59 AM CST 7:17 PM CST
Moon 9:33 AM CST (2/3) 10:38 PM CST (2/3)
Length of Visible Light 11h 08m
Length of Day
10h 10m
Waxing Crescent, 20% of the Moon is Illuminated
Feb 3
Waxing Crescent
Feb 6
First Quarter
Feb 14
Full
Feb 22
Last Quarter
Mar 1
New

Hourly Weather History & Observations

Time (CST) Temp. Windchill Dew Point Humidity Pressure Visibility Wind Dir Wind Speed Gust Speed Precip Events Conditions
12:15 AM 12.0 °F - 4.5 °F 72% 30.24 in 10.0 mi Calm Calm - N/A   Clear
12:35 AM 11.3 °F - 3.9 °F 72% 30.24 in 10.0 mi Calm Calm - N/A   Clear
12:55 AM 11.3 °F - 4.1 °F 73% 30.24 in 10.0 mi Calm Calm - N/A   Clear
1:15 AM 10.9 °F - 4.3 °F 75% 30.23 in 10.0 mi Calm Calm - N/A   Clear
1:35 AM 10.9 °F - 4.1 °F 74% 30.23 in 10.0 mi Calm Calm - N/A   Clear
1:55 AM 10.6 °F - 3.9 °F 75% 30.24 in 10.0 mi Calm Calm - N/A   Clear
2:15 AM 10.4 °F - 3.7 °F 74% 30.24 in 10.0 mi Calm Calm - N/A   Clear
2:35 AM 10.4 °F - 3.7 °F 74% 30.24 in 10.0 mi Calm Calm - N/A   Clear
2:55 AM 9.3 °F - 3.2 °F 76% 30.25 in 10.0 mi Calm Calm - N/A   Clear
3:15 AM 8.6 °F - 3.2 °F 79% 30.25 in 10.0 mi Calm Calm - N/A   Clear
3:35 AM 8.1 °F 1.4 °F 2.8 °F 79% 30.25 in 10.0 mi SE 3.5 mph - N/A   Clear
3:55 AM 7.5 °F -1.1 °F 2.7 °F 81% 30.24 in 10.0 mi SE 4.6 mph - N/A   Clear
4:15 AM 6.8 °F - 2.3 °F 82% 30.23 in 10.0 mi Calm Calm - N/A   Clear
4:35 AM 6.8 °F -2.0 °F 2.3 °F 82% 30.23 in 10.0 mi SE 4.6 mph - N/A   Clear
4:55 AM 6.3 °F -0.7 °F 1.9 °F 82% 30.23 in 10.0 mi SE 3.5 mph - N/A   Clear
5:15 AM 6.4 °F - 1.8 °F 81% 30.23 in 10.0 mi Calm Calm - N/A   Clear
5:35 AM 6.3 °F - 1.9 °F 82% 30.24 in 10.0 mi Calm Calm - N/A   Clear
5:55 AM 6.4 °F - 1.8 °F 81% 30.24 in 10.0 mi Calm Calm - N/A   Clear
6:15 AM 6.1 °F - 1.4 °F 81% 30.24 in 10.0 mi Calm Calm - N/A   Clear
6:35 AM 5.9 °F - 1.4 °F 82% 30.24 in 10.0 mi Calm Calm - N/A   Clear
6:55 AM 5.5 °F -3.4 °F 0.7 °F 80% 30.23 in 10.0 mi SE 4.6 mph - N/A   Clear
7:15 AM 5.9 °F -1.1 °F 1.2 °F 81% 30.24 in 10.0 mi SE 3.5 mph - N/A   Clear
7:35 AM 5.7 °F - 0.9 °F 80% 30.25 in 10.0 mi Calm Calm - N/A   Clear
7:55 AM 5.9 °F - 1.0 °F 80% 30.25 in 10.0 mi Calm Calm - N/A   Clear
8:15 AM 6.6 °F -0.3 °F 1.0 °F 78% 30.27 in 10.0 mi SE 3.5 mph - N/A   Clear
8:35 AM 8.2 °F -0.3 °F 2.3 °F 77% 30.26 in 10.0 mi SE 4.6 mph - N/A   Clear
8:55 AM 9.5 °F 3.0 °F 3.2 °F 76% 30.26 in 10.0 mi SE 3.5 mph - N/A   Clear
9:15 AM 11.7 °F - 4.6 °F 73% 30.26 in 10.0 mi Calm Calm - N/A   Clear
9:35 AM 13.5 °F - 6.4 °F 74% 30.26 in 10.0 mi Calm Calm - N/A   Clear
9:55 AM 14.7 °F - 6.6 °F 70% 30.25 in 10.0 mi Calm Calm - N/A   Clear
10:15 AM 16.9 °F 11.5 °F 8.2 °F 69% 30.25 in 10.0 mi SSE 3.5 mph - N/A   Clear
10:35 AM 19.2 °F - 9.9 °F 67% 30.26 in 10.0 mi Calm Calm - N/A   Clear
10:55 AM 21.2 °F - 10.9 °F 65% 30.26 in 10.0 mi Calm Calm - N/A   Scattered Clouds
11:15 AM 25.5 °F - 13.3 °F 60% 30.25 in 10.0 mi Calm Calm - N/A   Scattered Clouds
11:35 AM 27.1 °F 19.7 °F 12.9 °F 55% 30.25 in 10.0 mi South 6.9 mph - N/A   Mostly Cloudy
11:55 AM 28.8 °F - 14.0 °F 54% 30.24 in 10.0 mi Calm Calm - N/A   Overcast
12:15 PM 29.7 °F 26.1 °F 14.4 °F 53% 30.23 in 10.0 mi SSW 3.5 mph - N/A   Overcast
12:35 PM 31.3 °F 25.6 °F 14.9 °F 51% 30.22 in 10.0 mi South 5.8 mph - N/A   Overcast
12:55 PM 30.9 °F 24.3 °F 13.1 °F 48% 30.22 in 10.0 mi SW 6.9 mph - N/A   Overcast
1:15 PM 31.3 °F 23.9 °F 12.7 °F 46% 30.21 in 10.0 mi South 8.1 mph - N/A   Overcast
1:35 PM 31.6 °F 27.0 °F 12.4 °F 45% 30.20 in 10.0 mi SSW 4.6 mph - N/A   Overcast
1:55 PM 32.0 °F 25.6 °F 12.4 °F 44% 30.20 in 10.0 mi South 6.9 mph - N/A   Overcast
2:15 PM 31.6 °F 24.4 °F 12.2 °F 45% 30.20 in 10.0 mi South 8.1 mph - N/A   Overcast
2:35 PM 31.5 °F 24.9 °F 11.8 °F 44% 30.19 in 10.0 mi SSE 6.9 mph - N/A   Overcast
2:55 PM 31.5 °F 26.8 °F 12.0 °F 45% 30.19 in 10.0 mi South 4.6 mph - N/A   Overcast
3:15 PM 31.6 °F 28.3 °F 11.7 °F 44% 30.18 in 10.0 mi South 3.5 mph - N/A   Overcast
3:35 PM 32.0 °F 26.4 °F 11.5 °F 43% 30.19 in 10.0 mi SSE 5.8 mph - N/A   Overcast
3:55 PM 31.1 °F 25.4 °F 14.0 °F 49% 30.19 in 10.0 mi SE 5.8 mph - N/A   Overcast
4:15 PM 32.0 °F 27.5 °F 9.9 °F 40% 30.18 in 10.0 mi SSE 4.6 mph - N/A   Overcast
4:35 PM 31.6 °F 28.3 °F 13.5 °F 47% 30.18 in 10.0 mi SE 3.5 mph - N/A   Overcast
4:55 PM 31.1 °F 26.4 °F 13.1 °F 47% 30.18 in 10.0 mi ESE 4.6 mph - N/A   Overcast
5:15 PM 30.7 °F 22.0 °F 13.1 °F 48% 30.18 in 10.0 mi SE 10.4 mph - N/A   Overcast
5:35 PM 29.7 °F 26.1 °F 14.0 °F 52% 30.18 in 10.0 mi SE 3.5 mph - N/A   Overcast
5:55 PM 29.3 °F 23.2 °F 14.0 °F 53% 30.18 in 10.0 mi ESE 5.8 mph - N/A   Overcast
6:15 PM 28.6 °F 21.5 °F 13.6 °F 54% 30.18 in 10.0 mi SE 6.9 mph - N/A   Overcast
6:35 PM 27.9 °F 21.5 °F 13.5 °F 55% 30.18 in 10.0 mi SE 5.8 mph - N/A   Overcast
6:55 PM 27.5 °F 19.3 °F 13.5 °F 56% 30.19 in 10.0 mi SE 8.1 mph - N/A   Overcast
7:15 PM 27.0 °F 20.5 °F 12.4 °F 54% 30.19 in 10.0 mi SE 5.8 mph - N/A   Overcast
7:35 PM 27.0 °F 18.7 °F 11.3 °F 52% 30.20 in 10.0 mi SSE 8.1 mph - N/A   Overcast
7:55 PM 26.2 °F 18.6 °F 13.8 °F 59% 30.21 in 10.0 mi SE 6.9 mph - N/A   Overcast
8:15 PM 25.7 °F 18.0 °F 14.0 °F 61% 30.21 in 10.0 mi SE 6.9 mph - N/A   Overcast
8:35 PM 25.3 °F 16.0 °F 11.8 °F 57% 30.22 in 10.0 mi SE 9.2 mph - N/A   Overcast
8:55 PM 24.8 °F 16.1 °F 11.7 °F 57% 30.22 in 10.0 mi SE 8.1 mph - N/A   Overcast
9:15 PM 24.8 °F 20.5 °F 12.0 °F 58% 30.23 in 10.0 mi SSE 3.5 mph - N/A   Overcast
9:35 PM 24.6 °F 17.7 °F 11.1 °F 57% 30.23 in 10.0 mi SE 5.8 mph - N/A   Overcast
9:55 PM 24.4 °F 16.5 °F 10.4 °F 55% 30.24 in 10.0 mi SE 6.9 mph - N/A   Overcast
10:15 PM 24.3 °F 17.3 °F 10.9 °F 57% 30.24 in 10.0 mi SE 5.8 mph - N/A   Overcast
10:35 PM 24.3 °F - 10.8 °F 56% 30.24 in 10.0 mi Calm Calm - N/A   Overcast
10:55 PM 24.1 °F - 10.8 °F 57% 30.25 in 10.0 mi Calm Calm - N/A   Overcast
11:15 PM 23.9 °F - 10.4 °F 56% 30.26 in 10.0 mi Calm Calm - N/A   Overcast
11:35 PM 23.9 °F - 10.8 °F 57% 30.26 in 10.0 mi Calm Calm - N/A   Overcast
11:55 PM 23.9 °F - 10.9 °F 58% 30.25 in 10.0 mi Calm Calm - N/A   Overcast